Location: Eurasberg
(48.3353°N, 11.0839°E)
Time: 11:09:44
(UTC+00:00)

Cosmos 1656 Rocket - Pass Details

Date: 18 January 2026
Orbit: 794 x 844 km, 71.1° (Epoch: 10 February)

Event Time Altitude Azimuth Distance (km) Brightness Sun altitude
Rises 05:58:20 0° 212° (SSW) 3,390 6.7 -10.1°
Reaches altitude 10° 06:00:47 10° 214° (SW) 2,459 6.0 -9.7°
Maximum altitude 06:06:25 73° 299° (WNW) 884 3.7 -8.8°
Drops below altitude 10° 06:12:05 10° 25° (NNE) 2,459 6.2 -7.9°
Sets 06:14:32 0° 27° (NNE) 3,391 6.9 -7.5°
